FW7418 Weather Reports


time (UTC)temp
C
wind
direction
speed
KPH
gust
KPH
rain 1hr
cm
rain 24hr
cm
rain mn
cm
humidity
%
barometer
mb
20260505010310 21 255 4.8 4.8 0.00 0.00 0.00 59 1008.7
20260505005806 21 277 4.8 8.0 0.00 0.00 0.00 58 1008.7
20260505005304 22 288 4.8 4.8 0.00 0.00 0.00 58 1008.7
20260505004801 22 295 3.2 3.2 0.00 0.00 0.00 57 1008.6
20260505004256 22 276 1.6 1.6 0.00 0.00 0.00 57 1008.6
20260505003754 22 288 1.6 3.2 0.00 0.00 0.00 56 1008.3
20260505003252 22 286 6.4 9.7 0.00 0.00 0.00 56 1008.6
20260505002748 22 285 3.2 3.2 0.00 0.00 0.00 56 1008.7
20260505002245 22 217 3.2 3.2 0.00 0.00 0.00 56 1008.6
20260505001743 22 277 4.8 8.0 0.00 0.00 0.00 55 1008.7
20260505001240 22 266 6.4 8.0 0.00 0.00 0.00 56 1008.7
20260505000737 22 254 4.8 8.0 0.00 0.00 0.00 56 1008.8
20260505000235 22 270 3.2 3.2 0.00 0.00 0.00 57 1009.0
20260504235731 22 275 8.0 9.7 0.00 0.00 0.00 58 1008.9
20260504235227 22 291 1.6 1.6 0.00 0.00 0.00 60 1009.0
20260504234725 22 276 3.2 3.2 0.00 0.00 0.00 60 1008.8
20260504234222 22 288 3.2 4.8 0.00 0.00 0.00 59 1008.9
20260504233718 22 279 1.6 3.2 0.00 0.00 0.00 59 1009.1
20260504233214 22 306 0.0 1.6 0.00 0.00 0.00 59 1009.0
20260504232711 22 279 0.0 0.0 0.00 0.00 0.00 59 1009.1
20260504232208 22 242 3.2 4.8 0.00 0.00 0.00 58 1009.1
20260504231705 22 284 3.2 4.8 0.00 0.00 0.00 59 1009.3
20260504231201 22 301 1.6 1.6 0.00 0.00 0.00 57 1009.3
20260504230657 23 343 1.6 1.6 0.00 0.00 0.00 57 1009.3
20260504230156 22 333 0.0 0.0 0.00 0.00 0.00 58 1009.3
20260504225655 22 283 1.6 3.2 0.00 0.00 0.00 58 1009.4
20260504225150 23 267 0.0 0.0 0.00 0.00 0.00 57 1009.3
20260504224647 22 281 4.8 4.8 0.00 0.00 0.00 59 1009.6
20260504224144 22 281 1.6 1.6 0.00 0.00 0.00 61 1009.5
20260504223641 22 268 3.2 3.2 0.00 0.00 0.00 60 1009.8
20260504223137 22 245 1.6 3.2 0.00 0.00 0.00 61 1009.9
20260504222634 22 289 1.6 1.6 0.00 0.00 0.00 59 1010.0
20260504222131 22 288 1.6 1.6 0.00 0.00 0.00 60 1009.8
20260504221628 22 300 0.0 1.6 0.00 0.00 0.00 59 1009.6
20260504221125 22 296 1.6 1.6 0.00 0.00 0.00 62 1009.7
20260504220621 22 302 0.0 1.6 0.00 0.00 0.00 62 1009.7
20260504220120 22 316 1.6 1.6 0.00 0.00 0.00 61 1010.0
20260504215615 21 283 1.6 1.6 0.00 0.00 0.00 60 1009.6
20260504215113 21 283 3.2 3.2 0.00 0.00 0.00 60 1009.7
20260504214609 21 274 6.4 9.7 0.00 0.00 0.00 59 1009.8
20260504214105 22 267 4.8 4.8 0.00 0.00 0.00 59 1010.2
20260504213601 22 265 12.9 14.5 0.00 0.00 0.00 59 1010.4
20260504213059 22 239 11.3 12.9 0.00 0.00 0.00 59 1010.4
20260504212554 22 279 6.4 8.0 0.00 0.00 0.00 60 1010.3
20260504212052 22 256 6.4 8.0 0.00 0.00 0.00 61 1010.4
20260504211549 21 287 3.2 4.8 0.00 0.00 0.00 63 1010.2
20260504211045 21 280 3.2 4.8 0.00 0.00 0.00 64 1010.5
20260504210543 21 281 8.0 12.9 0.00 0.00 0.00 65 1010.4
20260504210039 21 273 4.8 4.8 0.00 0.00 0.00 66 1010.7
20260504205537 20 271 4.8 4.8 0.00 0.00 0.00 66 1010.6
20260504205035 20 292 6.4 8.0 0.00 0.00 0.00 67 1010.2
20260504204533 20 165 3.2 4.8 0.00 0.00 0.00 68 1010.3
20260504204032 20 266 3.2 4.8 0.00 0.00 0.00 68 1010.8
20260504203529 20 306 1.6 1.6 0.00 0.00 0.00 69 1011.3
20260504203027 20 284 4.8 4.8 0.00 0.00 0.00 70 1011.4
20260504202522 20 274 8.0 9.7 0.00 0.00 0.00 70 1011.2
20260504202019 20 294 3.2 3.2 0.00 0.00 0.00 69 1011.5
20260504201516 20 290 4.8 4.8 0.00 0.00 0.00 71 1011.3
20260504201014 20 139 1.6 4.8 0.00 0.00 0.00 71 1011.4
20260504200510 20 262 4.8 4.8 0.00 0.00 0.00 72 1011.4
20260504200007 20 212 4.8 8.0 0.00 0.00 0.00 70 1011.2
20260504195503 20 287 6.4 8.0 0.00 0.00 0.00 70 1011.4
20260504195000 20 283 1.6 3.2 0.00 0.00 0.00 70 1011.4
20260504194455 20 286 3.2 4.8 0.00 0.00 0.00 68 1011.3
20260504193951 20 295 0.0 1.6 0.00 0.00 0.00 69 1011.0
20260504193449 19 298 1.6 3.2 0.00 0.00 0.00 68 1011.4
20260504192948 19 250 4.8 4.8 0.00 0.00 0.00 69 1011.5
20260504192444 19 278 4.8 9.7 0.00 0.00 0.00 70 1012.0
20260504191943 20 277 4.8 8.0 0.00 0.00 0.00 69 1012.1
20260504191441 20 261 4.8 4.8 0.00 0.00 0.00 68 1012.2
20260504190936 20 273 4.8 8.0 0.00 0.00 0.00 68 1012.4
20260504190432 20 262 8.0 9.7 0.00 0.00 0.00 68 1012.5
20260504185929 20 264 4.8 8.0 0.00 0.00 0.00 69 1012.3
20260504185426 21 235 8.0 9.7 0.00 0.00 0.00 67 1012.7
20260504184922 21 249 3.2 3.2 0.00 0.00 0.00 66 1012.4
20260504184418 21 261 6.4 8.0 0.00 0.00 0.00 66 1012.2
20260504183914 21 280 6.4 8.0 0.00 0.00 0.00 65 1012.2
20260504183411 21 273 8.0 9.7 0.00 0.00 0.00 65 1012.3
20260504182909 21 276 4.8 4.8 0.00 0.00 0.00 65 1012.0
20260504182406 21 281 1.6 3.2 0.00 0.00 0.00 65 1011.5
20260504181903 21 277 3.2 4.8 0.00 0.00 0.00 63 1011.8
20260504181400 21 243 4.8 4.8 0.00 0.00 0.00 64 1012.0
20260504180859 21 278 12.9 16.1 0.00 0.00 0.00 63 1011.8
20260504180357 21 240 8.0 11.3 0.00 0.00 0.00 64 1011.6
20260504175855 21 272 3.2 3.2 0.00 0.00 0.00 65 1011.3
20260504175351 21 256 6.4 9.7 0.00 0.00 0.00 65 1011.3
20260504174849 21 270 8.0 9.7 0.00 0.00 0.00 64 1011.3
20260504174347 20 278 1.6 3.2 0.00 0.00 0.00 65 1011.5
20260504173843 20 307 4.8 4.8 0.00 0.00 0.00 65 1011.3
20260504173340 20 275 6.4 8.0 0.00 0.00 0.00 65 1011.5
20260504172837 20 274 8.0 9.7 0.00 0.00 0.00 64 1011.8
20260504172334 20 279 4.8 8.0 0.00 0.00 0.00 66 1011.6
20260504171829 20 281 4.8 8.0 0.00 0.00 0.00 66 1012.1
20260504171327 20 289 11.3 12.9 0.00 0.00 0.00 65 1011.9
20260504170824 20 280 3.2 3.2 0.00 0.00 0.00 66 1011.9
20260504170321 20 198 0.0 3.2 0.00 0.00 0.00 66 1011.5
20260504160239 19 293 4.8 8.0 0.00 0.00 0.00 64 1012.3
20260504150705 18 287 4.8 4.8 0.00 0.00 0.00 66 1012.4
20260504150201 18 89 3.2 3.2 0.00 0.00 0.00 66 1012.5
20260504141131 16 262 4.8 8.0 0.00 0.00 0.00 71 1013.0
20260504140627 15 283 3.2 3.2 0.00 0.00 0.00 71 1012.9
20260504140123 15 284 3.2 3.2 0.00 0.00 0.00 72 1013.1
20260504130551 14 296 1.6 1.6 0.00 0.00 0.00 71 1012.9
20260504110438 10 312 0.0 0.0 0.00 0.00 0.00 75 1013.1
20260504100401 10 344 0.0 0.0 0.00 0.00 0.00 74 1013.5
20260504081754 11 297 0.0 0.0 0.00 0.00 0.00 71 1014.1
20260504081251 11 297 0.0 0.0 0.00 0.00 0.00 71 1014.0
20260504080747 11 309 0.0 1.6 0.00 0.00 0.00 71 1014.0
20260504080243 11 319 0.0 0.0 0.00 0.00 0.00 70 1014.1
20260504070211 11 337 0.0 0.0 0.00 0.00 0.00 70 1014.4
20260504060132 11 316 0.0 0.0 0.00 0.00 0.00 69 1015.3
20260504050600 11 318 0.0 0.0 0.00 0.00 0.00 67 1016.0
20260504045554 12 324 0.0 0.0 0.00 0.00 0.00 66 1015.8
20260504045049 12 326 0.0 0.0 0.00 0.00 0.00 65 1015.9
20260504044547 12 321 0.0 0.0 0.00 0.00 0.00 65 1015.9
20260504044043 12 318 1.6 1.6 0.00 0.00 0.00 65 1016.0
20260504043541 12 302 1.6 1.6 0.00 0.00 0.00 65 1015.9
20260504043038 12 320 0.0 0.0 0.00 0.00 0.00 64 1016.1
20260504042535 12 253 1.6 1.6 0.00 0.00 0.00 64 1016.2
20260504042032 12 314 0.0 0.0 0.00 0.00 0.00 63 1016.0
20260504041527 12 330 0.0 0.0 0.00 0.00 0.00 63 1016.1
20260504041024 12 313 0.0 0.0 0.00 0.00 0.00 63 1016.1
20260504040521 12 277 0.0 0.0 0.00 0.00 0.00 62 1016.0
20260504040018 13 259 0.0 1.6 0.00 0.00 0.00 63 1016.3
20260504035515 12 266 1.6 1.6 0.00 0.00 0.00 62 1016.1
20260504035011 12 332 0.0 0.0 0.00 0.00 0.00 62 1016.3
20260504034509 12 334 0.0 0.0 0.00 0.00 0.00 63 1016.3
20260504034006 12 333 0.0 0.0 0.00 0.00 0.00 63 1016.3
20260504033504 12 335 0.0 0.0 0.00 0.00 0.00 62 1016.5
20260504033001 12 335 0.0 0.0 0.00 0.00 0.00 63 1016.3
20260504032457 12 329 0.0 0.0 0.00 0.00 0.00 63 1016.4
20260504031954 12 338 0.0 0.0 0.00 0.00 0.00 63 1016.4
20260504031451 12 327 0.0 0.0 0.00 0.00 0.00 63 1016.5
20260504030948 12 338 0.0 0.0 0.00 0.00 0.00 64 1016.3
20260504030445 12 335 0.0 0.0 0.00 0.00 0.00 64 1016.5
20260504025940 12 163 1.6 3.2 0.00 0.00 0.00 64 1016.8
20260504025437 12 353 0.0 1.6 0.00 0.00 0.00 65 1016.7
20260504024935 12 348 0.0 0.0 0.00 0.00 0.00 66 1016.7
20260504024432 12 350 0.0 0.0 0.00 0.00 0.00 67 1016.8
20260504023929 11 342 0.0 0.0 0.00 0.00 0.00 71 1016.9
20260504023425 11 341 0.0 0.0 0.00 0.00 0.00 72 1016.9
20260504022921 11 341 0.0 0.0 0.00 0.00 0.00 72 1016.8
20260504022417 11 341 0.0 0.0 0.00 0.00 0.00 71 1016.8
20260504021914 11 344 0.0 0.0 0.00 0.00 0.00 71 1016.8
20260504021411 11 339 0.0 0.0 0.00 0.00 0.00 72 1016.9
20260504020909 11 340 0.0 0.0 0.00 0.00 0.00 72 1017.0
20260504020405 11 340 0.0 0.0 0.00 0.00 0.00 72 1016.9
20260504015901 11 339 0.0 0.0 0.00 0.00 0.00 72 1016.9
20260504015357 11 339 0.0 1.6 0.00 0.00 0.00 73 1016.9
20260504014853 11 340 0.0 0.0 0.00 0.00 0.00 74 1016.9
20260504014350 11 339 0.0 0.0 0.00 0.00 0.00 75 1016.9
20260504013847 10 340 0.0 0.0 0.00 0.00 0.00 77 1016.8
20260504013345 10 339 0.0 0.0 0.00 0.00 0.00 79 1016.7
20260504012841 11 340 0.0 0.0 0.00 0.00 0.00 78 1016.7
20260504012339 10 339 0.0 0.0 0.00 0.00 0.00 78 1016.7
20260504011837 11 339 0.0 0.0 0.00 0.00 0.00 78 1016.6
20260504011333 11 344 0.0 0.0 0.00 0.00 0.00 76 1016.6
20260504010829 11 7 1.6 1.6 0.00 0.00 0.00 76 1016.8